Regional Weather Roundup
Issued by NWS Goodland, KS

Home | Current Version | Previous Version | Text Only | Print | Product List | Glossary On
Versions: 1 2 3 4 5 6 7 8 9 10 11 12 13 14 15 16 17 18 19 20 21 22 23 24 25 26 27 28 29 30 31 32 33 34 35 36 37 38 39 40 41 42 43 44 45 46 47 48 49 50
000
ASUS43 KGLD 271408
RWRGLD

GOODLAND FORECAST AREA HOURLY WEATHER ROUNDUP
NATIONAL WEATHER SERVICE GOODLAND KS
800 AM MDT TUE JUN 27 2017

...OFFICIAL OBSERVATIONS...

CITY           SKY/WX    TMP DP  RH WIND       PRES   REMARKS
GOODLAND KS    FOG       60  60 100 S12       30.00S VSB 1/2
HILL CITY KS   CLOUDY    64  63  96 SE13      30.00F FOG
IMPERIAL NEB   CLOUDY    62  57  83 S13       29.99F
MCCOOK NEB     CLOUDY    62  60  93 SE10      29.99F
AKRON CO       SUNNY     66  56  70 SE15      29.97F
BURLINGTON CO  CLOUDY    61  59  93 S12       30.00F FOG
LIMON CO       SUNNY     66  53  63 SE13      30.05F
$$

...UNOFFICIAL OBSERVATIONS...

CITY           SKY/WX    TMP DP  RH WIND       PRES   REMARKS
LENORA KS        N/A     61  32  33 MISG        N/A
NORTON KS      CLOUDY    61  57  88 SE12      29.99F FOG
SHARON SPRINGS   N/A     61  60  96 S6          N/A
TRENTON NEB      N/A     61  32  33 S8          N/A
KIT CARSON CO    N/A     65  60  83 MISG        N/A
YUMA CO        CLOUDY    61  54  77 S12       29.97F
$$




USA.gov is the U.S. government's official web portal to all federal, state and local government web resources and services.